RH
98 96 94 95 95 94 94 94 94 94 94 94 94 94 93 92 90 90 89 90 90 89 88 89 88 88 88 89 92 91 96 88
98 99 98 97 96 94 94 94 95 94 95 95 95 93 93 92 90 90 90 91 91 90 90 89 88 88 89 91 92 91 95 88
98 98 98 98 96 91 94 94 94 94 95 94 96 97 95 93 93 90 89 89 90 89 88 89 88 89 91 92 92 95 93 85
94 97 97 96 80 95 97 93 97 97 97 96 98 96 96 84 90 90 88 89 89 89 89 91 91 94 91 86 92 87 88 84
89 92 95 92 85 98 99 99 99 99 97 97 97 92 95 91 92 89 96 91 96 93 93 94 89 89 88 86 85 80 80 76
88 87 91 95 94 96 98 98 99 99 98 96 98 98 97 91 89 93 89 94 96 88 88 84 79 83 84 84 77 80 79 84
86 86 87 87 93 91 94 93 95 94 95 94 96 96 96 93 95 92 84 79 80 80 84 85 85 88 82 82 80 86 85 87
82 85 84 83 90 88 87 86 88 91 89 91 91 94 97 96 96 95 93 94 94 93 93 93 92 90 90 84 88 63 62 63
83 83 82 83 87 86 83 84 84 87 89 93 91 93 94 96 96 96 94 96 91 91 90 92 68 63 66 59 57 56 55 51
77 76 82 81 86 85 82 83 87 86 90 90 94 94 89 94 94 89 90 95 93 80 71 74 75 72 69 60 61 52 50 49
77 78 83 81 85 86 85 86 86 86 92 94 95 92 92 95 96 96 93 92 76 74 79 76 76 62 51 61 56 55 55 44
69 74 83 82 89 90 90 88 92 95 95 97 93 91 92 94 96 96 85 80 82 78 71 74 70 60 44 45 56 62 56 59
70 72 84 86 92 92 89 88 93 97 98 95 91 92 93 95 94 76 83 77 77 70 67 59 63 67 56 55 64 61 55 55
71 71 81 84 82 82 84 82 96 94 97 94 91 94 94 89 78 81 79 75 69 62 61 68 68 74 59 68 62 57 60 57
72 75 80 79 80 83 97 98 99 99 98 95 95 90 86 77 73 79 80 74 70 65 62 58 64 71 68 62 59 59 77 68
70 79 81 81 82 84 89 87 92 86 93 96 91 76 81 78 73 77 75 75 70 69 66 71 66 66 73 66 72 72 72 76
70 80 85 85 85 82 87 85 84 91 93 87 81 76 76 69 68 75 70 72 73 72 73 71 75 77 74 78 81 83 82 83
73 82 87 87 86 83 86 85 88 93 88 81 77 83 82 74 65 67 67 69 72 74 75 76 80 80 84 88 82 82 84 87
76 81 88 88 88 85 86 84 85 87 84 76 76 78 78 77 67 69 68 71 73 78 80 78 78 81 82 85 87 85 85 86
78 80 86 90 88 88 87 87 83 80 78 77 74 71 75 75 70 68 71 73 77 78 80 80 86 89 86 89 85 85 87 85
Wind_Speed
9 9 10 11 12 13 14 14 14 13 13 12 11 10 9 8 7 6 5 6 5 4 3 2 3 5 6 8 8 9 5 3
9 8 8 7 8 12 12 12 13 14 12 11 10 10 9 9 8 7 7 6 5 5 4 3 4 5 5 6 8 9 4 4
9 10 8 7 7 9 11 12 11 11 11 11 8 4 6 7 7 8 8 7 7 6 5 4 5 7 8 6 7 3 4 4
9 10 10 9 8 7 6 7 5 5 6 6 4 5 5 6 6 8 9 8 8 7 6 5 5 4 3 5 3 4 3 3
10 10 10 10 8 6 4 3 4 3 5 5 5 4 4 4 3 3 3 7 3 4 3 3 4 4 4 4 3 3 3 2
13 11 11 9 6 7 6 5 5 4 5 6 4 3 4 4 4 4 4 3 4 4 3 4 4 5 6 5 4 3 1 2
16 14 13 11 10 7 7 7 7 7 6 6 5 5 5 4 4 4 3 3 4 3 3 4 4 4 4 2 4 5 5 3
17 17 15 13 10 11 9 8 8 7 7 7 9 6 4 4 4 4 4 4 4 4 4 2 1 2 4 5 4 5 6 6
21 21 19 17 15 12 10 9 9 8 8 9 9 8 6 6 5 5 4 4 5 3 3 2 4 4 6 6 5 6 5 5
19 16 21 20 17 13 10 10 9 9 8 8 7 7 8 6 5 4 5 4 4 4 4 4 4 3 3 4 4 4 5 6
21 21 21 20 15 12 12 11 9 8 7 6 7 7 7 6 5 5 5 4 4 4 2 3 2 2 3 2 4 5 5 4
22 18 18 17 11 10 8 8 8 6 7 5 8 7 9 6 5 5 5 5 4 3 4 4 3 1 2 4 4 3 4 5
21 20 19 15 12 13 11 12 8 6 6 9 10 9 9 8 5 6 5 7 5 6 4 4 4 2 3 3 4 3 4 3
19 20 19 17 14 12 8 9 4 6 6 9 10 10 9 8 8 6 7 6 6 5 5 3 2 3 3 3 3 4 3 3
21 22 22 19 17 10 5 5 4 5 8 8 6 8 8 8 8 9 7 6 5 5 5 6 4 2 4 4 2 2 2 3
23 21 22 19 19 16 17 16 13 10 10 6 7 7 7 8 9 10 9 5 7 5 4 4 5 4 2 3 3 4 2 5
22 20 20 19 21 20 16 16 11 6 7 12 9 6 7 10 9 10 9 6 7 8 6 6 3 4 3 2 2 1 2 3
19 21 22 20 21 21 22 21 16 13 12 11 9 7 5 7 8 10 9 9 8 7 7 8 6 5 3 3 3 3 3 2
20 22 22 21 22 21 22 21 20 19 17 13 13 9 7 8 8 9 8 9 8 8 7 7 6 5 5 3 3 3 3 3
24 24 22 22 23 21 19 17 12 12 15 13 11 11 10 9 8 9 10 10 8 7 5 5 6 5 6 4 3 2 2 2
Wind_Direction
145 153 156 149 148 149 150 152 152 154 155 159 161 163 163 161 158 155 161 167 162 171 184 225 297 327 334 331 333 331 9 320
148 147 148 148 156 154 155 158 159 159 161 165 165 167 171 175 179 182 188 188 190 208 224 248 285 301 300 308 318 329 356 304
154 152 154 151 151 163 158 163 166 165 166 170 165 164 180 187 193 197 198 203 211 225 240 264 289 300 300 303 297 301 324 316
169 159 160 156 162 159 159 166 170 178 175 175 167 172 186 194 207 206 206 210 226 236 241 256 278 281 298 306 285 297 310 311
175 167 164 165 164 160 164 161 163 175 188 184 178 182 197 202 207 209 203 213 222 240 258 245 253 271 284 277 283 280 273 258
171 175 170 174 157 169 169 169 177 183 195 191 178 197 204 210 207 197 194 191 206 230 233 233 229 253 259 246 235 256 337 347
179 173 179 179 169 177 176 182 183 193 197 192 181 202 209 190 193 185 206 182 193 216 232 240 239 225 242 331 358 13 356 1
180 181 183 182 181 181 184 186 188 193 201 200 196 202 203 187 179 193 186 188 201 215 192 178 353 356 350 11 25 33 23 24
186 184 180 185 186 184 186 187 188 197 204 202 198 198 190 178 168 169 184 161 171 180 128 110 80 52 66 44 31 34 24 27
187 189 187 186 188 184 186 188 188 196 200 200 193 185 173 171 161 169 165 151 139 119 119 90 87 86 90 44 45 43 58 47
188 189 191 192 187 179 182 185 190 199 197 193 180 176 172 165 162 169 153 139 125 126 103 131 125 76 107 83 52 62 49 47
188 185 188 186 179 173 173 173 187 189 191 182 170 176 173 161 156 147 137 124 122 135 109 57 106 83 55 34 51 99 54 58
188 185 183 175 174 177 186 190 181 180 173 169 171 177 168 165 145 145 141 138 153 149 114 110 36 18 67 10 24 49 32 60
189 189 182 185 183 184 188 187 162 169 169 172 175 176 165 162 151 147 139 129 137 131 122 116 101 11 114 94 14 332 340 6
190 189 186 187 184 171 125 111 105 151 182 176 177 167 167 155 151 149 148 141 142 138 136 136 139 30 68 137 108 224 320 317
193 187 185 185 179 180 181 183 182 194 182 159 159 163 173 162 152 152 151 140 135 136 140 133 119 140 68 55 85 142 165 315
194 187 187 182 181 184 183 185 187 162 162 159 160 152 159 159 154 146 144 141 137 136 135 129 112 125 143 147 106 112 121 148
186 185 190 187 183 185 187 182 173 163 168 167 166 156 150 157 155 147 144 142 144 147 139 133 132 127 138 146 156 163 188 167
185 188 190 185 187 189 188 185 176 174 169 166 161 159 160 170 156 154 151 146 144 140 136 135 146 145 153 157 150 170 160 176
185 190 188 185 186 189 188 182 179 177 172 166 167 168 161 166 152 153 150 146 144 137 130 133 134 133 142 147 152 152 142 162